User: anonymous
Location: Unspecified
(0.0000°N, 0.0000°E)
Time: 05:31:58
(UTC+00:00)
Language:

LANDSAT 8 - Orbit

View from above orbital plane
View from above orbital plane
View from above satellite
View from above satellite

Ground track
Ground track

The orbit data is extracted from the following two-line orbital elements,

1 39084U 13008A   14234.25281382  .00000234  00000-0  61968-4 0  5697
2 39084 098.2148 303.5730 0000801 066.4005 293.7304 14.57110963 81070
Epoch (UTC): 22 August 2014 06:04:03
Eccentricity: 0.0000801
inclination: 98.2148°
perigee height: 702 km
apogee height: 703 km
right ascension of ascending node: 303.5730°
argument of perigee: 66.4005°
revolutions per day: 14.57110963
mean anomaly at epoch: 293.7304°
orbit number at epoch: 8107

The dashed part of the orbit path shows where the satellite is in the earth's shadow,  

DLR